Location: Baia Mare
(47.6567°N, 23.5850°E)
Time: 03:22:17
(UTC+03:00)

ISS - Pass Details

Date: 16 May 2018
Orbit: 402 x 407 km, 51.6° (Epoch: 26 May)

Event Time Altitude Azimuth Distance (km) Brightness Sun altitude
Exits shadow 02:56:53 30° 298° (WNW) 752 -2.5 -20.0°
Maximum altitude 02:58:03 44° 350° (N) 566 -2.8 -19.9°
Drops below altitude 10° 03:01:12 10° 64° (ENE) 1,459 -0.3 -19.7°
Sets 03:03:20 0° 71° (ENE) 2,319 0.7 -19.5°
